Aérodrome :
LOGIN :

S'inscrire | Disclaimer

   EN    FR    IT 

 










Légende :    VFR   VFR Marginal   IFR   IFR Intensif   IFR Très Intensif
Visi : 
Plafond : 
>= 8 km
>= 3000ft
5 à 8 km
1000 à 3000 ft
1500m à 5 km
500 à 1000 ft
800 à 1500m
200 à 500 ft
< 800m
< 200 ft
Symboles :   Orages  Brouillard  Fortes neiges  Fortes précipitations  Vent > 20 kt
SIGMETs :   Divers  Orages  Givrage  Turbulence  Onde Orograph.  Cendres Volcan.







- Altitude de l'aérodrome : 129 ft
- Code IATA : ZPQ


ETHE - Rheine Bentlage

DERNIER METAR :
  • 280620Z 11007KT 9999 -SHRA FEW015CB BKN040 BKN080 18/15 Q0998 BLU

METARs EXPIRÉS :
  • 280520Z 09007KT 9999 FEW040 BKN080 17/15 Q0998 BLU
  • 280420Z AUTO 09006KT //// // ////// 16/14 Q0999 ///

TAF COR TAF ETHE
Valide du 28 à 05h jusqu'au 28 à 14h UTC


280442Z 2805/2814 10006KT 9999 -SHRA SCT040 BKN100
BECMG 2808/2811 18006KT 8000 -RA SCT025 BKN050
PROB30 2810/2814 VRB15G30KT 3000 TSRA SCT010 BKN025CB
Pas de NOTAMs connus pour ce terrain.



MET'MAP, la Météo Aéronautique d'un coup d'oeil ! - Copyright ORBIFLY Décembre 2007 - Disclaimer

ORBIFLY MET'MAP TEAM :

Programmation & Développement : Alexandra Zaïnal
Conception & Développement : Baudouin d'Aumeries
Co-Programmation & Développement : Marc-Olivier Méhu
Soutien technique & logistique : Manuel Goepfert

Contact : metmap@orbifly.com




SOURCES & CREDITS :

   NOAA